Regional Weather Roundup
Issued by NWS

Home | Current Version | Previous Version | Graphics & Text | Print | Product List | Glossary On
Versions: 1 2 3 4 5 6 7 8 9 10 11 12 13 14 15 16 17 18 19 20 21 22 23 24 25 26 27 28 29 30 31 32 33 34 35 36 37 38 39 40 41 42 43 44 45 46 47 48 49 50
000
ASUS43 KMPX 180501
RWRMN
WEATHER ROUNDUP FOR MINNESOTA
NATIONAL WEATHER SERVICE TWIN CITIES/CHANHASSEN MN
1100 PM CST WED DEC 17 2014


NOTE: "FAIR" INDICATES FEW OR NO CLOUDS BELOW 12,000 FEET WITH NO
SIGNIFICANT WEATHER AND/OR OBSTRUCTIONS TO VISIBILITY. N/A MEANS
CURRENT SKY AND/OR WEATHER CONDITIONS ARE NOT AVAILABLE.

MNZ060>063-068>070-180600-
   Twin Cities Metro

CITY           SKY/WX    TMP DP  RH WIND       PRES   REMARKS
TWIN CITIES    PTCLDY    15   9  76 NE3       30.33S
ST PAUL        FAIR      15  11  83 CALM      30.35S
CRYSTAL        PTCLDY    11   8  88 CALM      30.32S
BLAINE         PTCLDY    10  10 100 CALM      30.32S
LAKEVILLE      PTCLDY     9   9 100 CALM      30.30F
EDEN PRAIRIE   PTCLDY    14  10  84 NE5       30.30F WCI   6
SOUTH ST PAUL  FAIR      13  10  87 CALM      30.33S
LAKE ELMO      FAIR      10   9  92 CALM      30.33S
$$
MNZ001>005-007-008-013>017-022>024-027-028-180600-
   Northwest Minnesota

CITY           SKY/WX    TMP DP  RH WIND       PRES   REMARKS
BEMIDJI        FAIR       4   2  88 CALM      30.29S
HALLOCK        PTCLDY     5   1  85 CALM      30.32R
ROSEAU         MOCLDY     7   1  78 CALM      30.31S
WARROAD        MOCLDY     5   1  85 CALM      30.31S
THIEF RVR FALL PTCLDY    12  10  92 E6        30.30R WCI   3
CROOKSTON      MOCLDY     9   7  92 CALM      30.33S
FOSSTON        PTCLDY     3   1  92 CALM      30.29S
DETROIT LAKES  PTCLDY    10   9  92 E3        30.28S
MOORHEAD       PTCLDY     9   9 100 NE3       30.31F
PARK RAPIDS    PTCLDY     9   4  80 CALM      30.27F
MAHNOMEN       FAIR      10   6  87 SE5       30.29S WCI   1
$$
MNZ006-009>011-018-025>026-180600-
   North Central Minnesota

CITY           SKY/WX    TMP DP  RH WIND       PRES   REMARKS
BAUDETTE       MOCLDY     5   0  79 CALM      30.31R
FLAG ISLAND    MOCLDY    10   7  85 CALM      30.32R
INTL FALLS     PTCLDY     2  -2  83 CALM      30.32R
WASKISH        MOCLDY     3   1  92 CALM      30.31R
BIG FORK       MOCLDY     3   0  85 CALM      30.30S
LONGVILLE      PTCLDY     3   1  92 CALM      30.30R
GRAND RAPIDS   MOCLDY     7   1  78 CALM      30.28R
CRANE LAKE     PTCLDY    -2  -6  84 CALM      30.35R
ORR            PTCLDY     3   0  85 CALM      30.29R
COOK           PTCLDY     0  -2  92 CALM      30.31R
WALKER         FAIR       6   3  89 CALM      30.29S
$$
MNZ012-019>021-037-180600-
   Northeast Minnesota

CITY           SKY/WX    TMP DP  RH WIND       PRES   REMARKS
DULUTH         CLOUDY    16  11  80 N5        30.26S WCI   9
ELY            PTCLDY     0  -4  85 CALM      30.29R
HIBBING        PTCLDY     4  -1  80 CALM      30.29R
EVELETH        MOCLDY     3   1  92 CALM      30.30R
DULUTH HARBOR  CLOUDY    25  19  80 CALM      30.33R
SILVER BAY     MOCLDY    12   9  85 N3        30.28S
GRAND MARAIS     N/A     19   6  57 N8        30.33S WCI   9
G MARAIS ARPRT PTCLDY     3  -2  78 N5        30.25R WCI  -6
$$
MNZ029>031-032-039>041-046>048-054>057-064-180600-
   West Central Minnesota

CITY           SKY/WX    TMP DP  RH WIND       PRES   REMARKS
FERGUS FALLS   PTCLDY     9   3  78 E3        30.33S
WHEATON        MOCLDY     1   0  92 CALM      30.31S
MORRIS         PTCLDY     9   5  85 NE6       30.28S WCI  -1
ALEXANDRIA     MOCLDY    11   7  84 E3        30.27F
ELBOW LAKE     FAIR       6   4  91 CALM      30.28S
WADENA         PTCLDY     3   1  92 CALM      30.27F
GLENWOOD       MOCLDY     9   7  92 E5        30.27S WCI   0
APPLETON       PTCLDY     7   3  85 CALM      30.30R
BENSON         PTCLDY     7   1  78 CALM      30.29R
ORTONVILLE     MOCLDY     7   3  85 CALM      30.29R
MADISON        MOCLDY     9   7  92 CALM      30.30R
WILLMAR        FAIR      10   9  92 CALM      30.30R
$$
MNZ033>034-036-042>043-049>051-058-059-180600-
   Central Minnesota

CITY           SKY/WX    TMP DP  RH WIND       PRES   REMARKS
ST CLOUD       MOCLDY    12   7  80 NE3       30.30F
SAUK CENTRE    FAIR       8   6  90 NE5       30.28F WCI   0
PAYNESVILLE    PTCLDY     8   7  96 CALM      30.29S
AITKIN         PTCLDY     5   0  78 CALM      30.30R
PINE RIVER     MOCLDY     3   1  92 CALM      30.33R
BRAINERD       MOCLDY     4   2  91 CALM      30.31R
STAPLES        PTCLDY     7   3  85 E3        30.28F
LONG PRAIRIE   FAIR       7   5  92 CALM      30.28S
LITTLE FALLS   MOCLDY    10   9  92 CALM      30.31F
LITCHFIELD     CLEAR     12  10  92 CALM      30.30R
BUFFALO        MOCLDY    10   8  89 CALM      30.32S
MAPLE LAKE     MOCLDY    11   9  93 CALM      30.32S
$$
MNZ037-044-045-052-053-180600-
   East Central Minnesota

CITY           SKY/WX    TMP DP  RH WIND       PRES   REMARKS
PRINCETON      MOCLDY     9   7  92 CALM      30.31F
MORA           PTCLDY     9   5  85 CALM      30.34S
CAMBRIDGE      PTCLDY     9   1  72 CALM      30.31S
RUSH CITY      CLOUDY    12  10  92 CALM      30.33S
MOOSE LAKE     PTCLDY     5   1  85 CALM      30.31R
HINCKLEY       CLOUDY    14  12  92 CALM      30.32S
CLOQUET        CLOUDY    12   9  85 CALM      30.28R
MCGREGOR       PTCLDY     9   5  85 CALM      30.31R
$$
MNZ071>073-080-081-089-090-097-098-180600-
   Southwest Minnesota

CITY           SKY/WX    TMP DP  RH WIND       PRES   REMARKS
MONTEVIDEO     PTCLDY     9   7  92 CALM      30.30S
GRANITE FALLS  PTCLDY     7   5  90 CALM      30.31R
CANBY          MOCLDY     4   2  90 CALM      30.31R
MARSHALL       PTCLDY     3   0  85 CALM      30.29R
REDWOOD FALLS  MOCLDY    10   8  92 CALM      30.30R
OLIVIA         PTCLDY    12  10  92 NE3       30.29R
PIPESTONE      PTCLDY    10   7  85 CALM      30.24S
WINDOM           N/A      7   3  85 CALM      30.28R
WORTHINGTON    PTCLDY     9   7  92 CALM      30.26S
JACKSON        PTCLDY    10   5  79 NE5       30.27S WCI   2
TRACY          PTCLDY     8   6  89 CALM      30.29R
SLAYTON        PTCLDY     7   5  92 CALM      30.26S
$$
MNZ065>067-074>077-082>085-091>093-180600-
   South Central Minnesota

CITY           SKY/WX    TMP DP  RH WIND       PRES   REMARKS
MANKATO        CLOUDY    18  10  73 E6        30.31R WCI   9
NEW ULM        CLOUDY    14  12  92 CALM      30.31R
ST JAMES       CLOUDY    12  10  92 SW3       30.32R
FAIRMONT       MOCLDY    10   7  85 W3        30.30R
GLENCOE        PTCLDY    13  12  92 CALM      30.29S
FARIBAULT      MOCLDY    14  10  85 CALM      30.30R
OWATONNA       MOCLDY    12   9  85 CALM      30.30R
WASECA         MOCLDY    14  12  92 NE6       30.32R WCI   5
ALBERT LEA     CLOUDY    18  14  86 CALM      30.29R
$$
MNZ078>079-086>088-094>096-180600-
   Southeast Minnesota

CITY           SKY/WX    TMP DP  RH WIND       PRES   REMARKS
ROCHESTER      CLOUDY    16  11  80 E7        30.27R WCI   6
RED WING       PTCLDY    12   9  85 N3        30.32S
STANTON        PTCLDY    11   8  87 CALM      30.30S
DODGE CENTER   MOCLDY    12  10  92 CALM      30.27R
WINONA         PTCLDY    19  14  79 CALM      30.34R
AUSTIN         CLOUDY    16  10  79 CALM      30.29R
PRESTON        CLOUDY    16  12  84 CALM      30.29R
$$
ABBREVIATIONS USED IN REMARKS
   TC - TEMPERATURES IN CELSIUS
  WCI - WIND CHILL INDEX
   HX - HEAT INDEX
  VSB - VISIBILITY
$$


USA.gov is the U.S. government's official web portal to all federal, state and local government web resources and services.